EDT,Max TemperatureF,Mean TemperatureF,Min TemperatureF,Max Dew PointF,MeanDew PointF,Min DewpointF,Max Humidity, Mean Humidity, Min Humidity, Max Sea Level PressureIn, Mean Sea Level PressureIn, Min Sea Level PressureIn, Max VisibilityMiles, Mean VisibilityMiles, Min VisibilityMiles, Max Wind SpeedMPH, Mean Wind SpeedMPH, Max Gust SpeedMPH,PrecipitationIn, CloudCover, Events, WindDirDegrees
2012-10-1,71,58,45,54,48,44,100,71,41,29.97,29.92,29.88,10,8,2,13,3,16,T,1,Rain,253
2012-10-2,63,61,59,63,59,54,100,89,78,30.02,29.97,29.93,10,3,1,9,3,13,2.16,8,Rain,22
2012-10-3,74,69,63,68,64,62,100,90,79,30.14,30.05,29.97,10,3,0,7,2,9,0.11,6,Fog-Rain,345
2012-10-4,75,67,58,70,64,57,100,84,68,30.15,30.12,30.08,10,2,0,13,2,17,0.03,5,Fog-Rain,307
2012-10-5,79,66,52,60,56,52,100,74,48,30.12,30.06,29.94,10,7,2,13,2,15,0.00,0,,244
2012-10-6,68,58,48,60,52,42,93,75,56,30.05,29.91,29.83,10,10,7,22,5,29,0.00,2,,284
2012-10-7,55,49,42,46,43,39,93,79,64,30.16,30.10,30.04,10,10,9,8,2,12,0.06,6,Rain,234
2012-10-8,52,46,39,44,40,37,92,78,63,30.30,30.25,30.14,10,10,10,9,3,10,T,3,,310
2012-10-9,57,53,48,53,48,44,100,86,72,30.24,30.17,30.07,10,10,6,9,3,12,0.01,8,Rain,17
2012-10-10,66,56,46,55,51,39,100,74,48,30.07,29.97,29.85,10,5,1,24,7,31,0.06,7,Rain,259
2012-10-11,59,50,41,41,34,31,82,60,37,30.26,30.19,30.06,10,10,10,18,7,22,0.00,0,,274
2012-10-12,58,47,36,41,34,26,92,65,38,30.48,30.24,30.12,10,10,9,23,7,30,0.00,2,,330
2012-10-13,57,44,30,35,29,24,92,61,30,30.55,30.45,30.30,10,10,10,13,2,17,0.00,0,,194
2012-10-14,71,60,48,54,48,38,77,65,53,30.26,30.11,29.93,10,10,10,15,7,21,T,3,Rain,188
2012-10-15,69,61,52,63,58,47,93,82,70,29.90,29.75,29.67,10,9,2,14,5,18,0.35,6,Rain,217
2012-10-16,61,51,40,46,40,38,89,67,44,29.94,29.86,29.77,10,10,10,21,9,26,0.00,3,,307
2012-10-17,64,51,38,45,41,37,100,72,44,30.04,29.98,29.93,10,9,2,9,2,13,0.00,0,,200
2012-10-18,70,57,44,58,49,42,93,69,45,30.00,29.95,29.85,10,10,8,16,7,25,0.06,3,,137
2012-10-19,75,67,58,64,61,59,100,84,68,29.84,29.74,29.61,10,6,1,18,3,26,2.27,7,Rain-Thunderstorm,193
2012-10-20,63,56,48,58,50,39,100,73,46,29.90,29.74,29.66,10,4,0,20,5,23,0.00,4,Fog,275
2012-10-21,65,54,43,45,41,39,96,70,43,30.10,30.02,29.92,10,10,9,17,6,22,0.00,0,,286
2012-10-22,69,55,41,44,42,39,96,68,39,30.18,30.12,30.08,10,10,9,16,3,18,0.00,0,,276
2012-10-23,66,57,47,58,52,44,93,83,73,30.17,30.10,30.06,10,9,6,8,1,9,0.02,4,Rain,5
2012-10-24,78,66,53,58,55,51,93,69,45,30.17,30.12,30.06,10,9,5,10,2,15,0.00,3,,116
2012-10-25,63,61,59,58,57,55,93,89,84,30.26,30.22,30.16,10,5,2,8,3,12,0.00,8,,119
2012-10-26,67,64,60,58,57,56,90,79,68,30.23,30.17,30.09,10,9,5,9,2,12,0.00,8,,126
2012-10-27,66,62,58,57,55,52,90,77,63,30.09,30.00,29.92,10,9,7,12,4,16,0.00,6,,45
2012-10-28,59,56,53,54,49,43,93,75,57,29.90,29.78,29.67,10,10,6,20,8,26,0.35,6,Rain,26
2012-10-29,61,57,52,56,49,45,93,80,66,29.66,29.06,28.38,10,5,2,30,17,46,2.01,8,Rain,360
2012-10-30,45,43,41,41,39,37,96,91,86,29.46,29.30,28.58,10,6,3,12,9,25,0.00,8,Rain,166
2012-10-31,46,44,41,39,37,36,76,73,70,29.59,29.53,29.44,20,11,10,13,8,,0.00,8,,219